100P/Hartley 1 (2003)

Japanese version
Home page
Total 6,336 html files since Dec. 4, 1995
Updated on June 29, 2003

---------------------------------------------------------------------

* Profile

* Pictures

* Orbital Elements

Epoch 2003 Aug. 29.0 TT = JDT 2452880.5  
T 2003 Aug. 18.03526 TT                                 Muraoka 
q   1.9797387            (2000.0)            P               Q
n   0.15663929     Peri.  181.53398     -0.77406810     +0.57451461
a   3.4082824      Node    37.89196     -0.57615094     -0.46509400
e   0.4191389      Incl.   25.66370     -0.26242840     -0.67351357
P   6.29
From 115 observations 1985-1997, mean residual 0".81.

* Finding Charts

* Magnitudes Graph

        m1 = 4.0 + 5 log d + 40 log r

---------------------------------------------------------------------

The orbital elements are calculated by Kenji Muraoka.
The charts are made with StellaNavigator Ver.2.0 for Windows (AstroArts / ASCII).
The magnitudes graphs are made with Comet for Windows.

---------------------------------------------------------------------

Copyright(C) 1995-2008 Seiichi Yoshida (comet@aerith.net). All rights reserved.